Reflectivity
-20 -20 -20 -20 -20 -20 -20 -20 -20 -20 -20 -20 -20 -20 -20 -20 -20 -20 -20 -20 -20 -20 -20 -20 -20 -20 -20 -20 -20 -20 -20 -20 -20 -20 -20 -20 -20 -20 -20 -20 -20 -20 -20 -20
-20 -20 -20 -20 -20 -20 -20 -20 -20 -20 -20 -20 -20 -20 -20 -20 -20 -20 -20 -20 -20 -20 -20 -20 -20 -20 -20 -20 -20 -20 -20 -20 -20 -20 -20 -20 -20 -20 -20 -20 -20 -20 -20 -20
-20 -20 -20 -20 -20 -20 -20 -20 -20 -20 -20 -20 -20 -20 -20 -20 -20 -20 -20 -20 -20 -20 -20 -20 -20 -20 -20 -20 -20 -20 -20 -20 -20 -20 -20 -20 -20 -20 -20 -20 -20 -20 -20 -20
-20 -20 -20 -20 -20 -19 -20 -20 -20 -20 -20 -20 -20 -20 -20 -20 -20 -20 -20 -20 -20 -20 -20 -20 -20 -20 -20 -20 -20 -20 -20 -20 -20 -20 -20 -20 -20 -20 -20 -20 -20 -20 -20 -20
-20 -20 -20 -20 -20 -20 -20 -20 -20 -20 -20 -20 -20 -20 -20 -20 -20 -20 -20 -20 -20 -20 -20 -20 -20 -20 -20 -20 -20 -20 -20 -20 -20 -20 -20 -20 -20 -20 -20 -20 -20 -20 -20 -13
-17 -20 -20 -20 -20 -20 -20 -20 -20 -20 -20 -20 -20 -20 -20 -20 -20 -20 -20 -20 -20 -20 -20 -20 -20 -20 -20 -20 -20 -20 -20 -20 -20 -20 -20 -20 -20 -20 -20 -20 -20 -1 -19 -20
-6 -7 -20 -20 -20 -20 -20 -20 -20 -20 -20 -20 -20 -20 -20 -20 -20 -20 -20 -20 -20 -20 -20 -20 -20 -20 -20 -20 -20 -20 -20 -20 -20 -20 -20 -20 -20 -20 -20 -20 -7 -20 -20 -20
-20 -20 -20 -20 -20 -20 -20 -20 -20 -20 -20 -20 -20 -20 -20 -20 -20 -20 -20 -20 -20 -20 -20 -20 -20 -20 -20 -20 -20 -20 -20 -20 -20 -20 -20 -20 -20 -20 -20 -20 -20 -20 -20 -20
-20 -20 -20 -20 -20 -20 -20 -20 -20 -20 -20 -20 -20 -20 -20 -20 -20 -20 -20 -20 -20 -20 -20 -20 -20 -20 -20 -20 -20 -20 -20 -20 -20 -20 -20 -20 -20 -20 -19 -0 -20 -20 -20 -20
-20 -20 -20 -20 -20 -20 -20 -20 -20 -20 -20 -20 -20 -20 -20 -20 -20 -20 -20 -20 -20 -20 -20 -20 -20 -20 -20 -20 -20 -20 -20 -20 -20 -20 -17 -20 -20 -1 -20 -20 -20 -17 -20 -18
-20 -20 -18 -10 -2 -18 11 -16 -20 -20 -20 -20 -20 -20 -20 -20 -20 -20 -20 -20 -20 -20 -20 -20 -20 -20 -20 -20 -20 -20 -20 -20 -20 -20 -20 -20 -20 -4 13 -11 7 16 5 4
-20 -20 20 28 29 12 -16 -15 -20 -20 -20 -20 -20 -20 -20 -20 -20 -20 -20 -20 -20 -20 -20 -20 -20 -20 -20 -20 -20 -20 -20 -20 -20 -19 -20 -20 -20 -13 18 12 5 6 7 13
-2 20 23 32 23 15 -15 -20 -20 -20 -20 -20 -20 -20 -20 -20 -20 -20 -20 -20 -20 -20 -20 -20 -20 -20 -20 -20 -20 -20 -20 -20 -20 -17 -20 -20 -20 -20 -19 15 18 14 5 2
3 26 25 21 15 14 3 -17 -20 -20 -20 -20 -20 -20 -20 -20 -20 -20 -20 -20 -20 -20 -20 -20 -20 -20 -20 -20 -20 -20 -20 -9 -20 -20 -20 -20 -20 -20 -20 -20 -20 -13 -1 4
25 26 22 16 15 13 0 -20 -20 -20 -20 -20 -20 -20 -20 -20 -20 -20 -20 -20 -20 -20 -20 -20 -20 -20 -20 -20 -20 -20 -20 -20 -20 -20 -20 -8 -18 -20 -20 -20 -20 -20 -20 7
24 20 17 13 10 3 -9 -15 -20 -20 -20 -20 -20 -20 -20 -20 -20 -20 -20 -20 -20 -20 -20 -20 -20 -20 -20 -20 -20 -20 -20 -20 -2 -20 -20 -20 -20 -20 -20 -20 -20 -20 -20 -7
18 13 6 6 3 -1 -15 -20 -20 -20 -20 -20 -20 -20 -20 -20 -20 -20 -20 -20 -20 -20 -20 -20 -20 -20 -20 -20 -20 -20 -20 -20 -9 -20 -20 -20 -20 -20 -20 -20 -20 -20 -7 3
13 5 1 0 -12 -20 -20 -20 -20 -20 -20 -20 -20 -20 -20 -20 -20 -20 -20 -20 -20 -20 -20 -20 -20 -16 -20 -20 2 -20 -20 -20 -20 -20 -20 -20 -9 -20 -20 -20 -20 -20 -17 -20
12 5 -4 -18 -20 -20 -20 -20 -20 -20 -20 -20 -20 -20 -20 -20 -20 -20 -20 -20 -20 -20 -20 -20 -20 -20 -20 -20 -3 -20 -20 -20 -20 -20 -20 -20 -20 -20 -20 -20 -20 -20 -1 -20
3 -14 -20 -20 -20 -20 -20 -20 -20 -20 -20 -20 -20 -20 -20 -20 -20 -20 -20 -20 -20 -20 -15 -20 -20 -20 -20 -19 -19 -20 -20 -20 -20 -20 -20 -20 -20 -20 -20 -20 -20 -10 -20 -20
-20 -20 -20 -20 -20 -20 -20 -20 -20 -20 -20 -20 -20 -20 -20 -20 -20 -20 -20 -20 -20 -20 -19 -20 -20 -20 -20 -20 -20 -20 -20 -20 -20 -20 -20 -20 -20 -20 -20 -20 -20 -11 -13 -2
-20 -20 -20 -20 -20 -20 -20 -20 -20 -20 -20 -20 -20 -20 -20 -20 -20 -20 -20 -20 -20 1 -20 -20 -20 -3 -13 -20 -20 -20 -20 -20 -20 -20 -20 -20 -20 -20 -20 -20 -12 -12 -7 1
-20 -20 -20 -20 -20 -20 -20 -20 -20 -20 -20 -20 -20 -20 -20 -20 -20 -20 -20 -20 -20 -6 -20 -20 -3 -3 -20 -20 -20 -20 -20 -20 -20 -20 -20 -20 -20 -20 -6 -3 -6 -11 -16 -10
-20 -20 -20 -20 -20 -20 -20 -20 -20 -20 -20 -20 -20 -20 -20 -20 -20 -20 -20 -20 -20 -14 -20 -20 -10 -19 -20 -20 -20 -20 -20 -20 -20 -20 -20 -20 -20 -20 -20 -20 -20 -15 -19 -20
-20 -20 -20 -20 -20 -20 -20 -20 -20 -20 -20 -20 -20 -20 -20 -20 -20 -20 -20 -20 -20 -20 -20 -20 -20 -20 -20 -20 -20 -20 -20 -20 -20 -20 -20 -20 -20 -20 -20 -20 -0 4 -20 -18
-20 -20 -20 -20 -20 -20 -20 -20 -20 -20 -20 -20 -20 -20 -20 -20 -20 -20 -20 -20 -20 -20 -20 -20 -20 -20 -20 -20 -20 -20 -20 -20 -20 -20 -20 -20 -20 -20 -20 -20 -18 0 -5 -17
-20 -20 -20 -20 -20 -20 -20 -20 -20 -20 -16 -20 -20 -20 -20 -20 -20 -20 -20 -20 -20 -20 -20 -20 -20 -20 -20 -20 -20 -20 -20 -20 -20 -20 -20 -20 -20 -20 -20 -9 -4 4 4 -3
Wind_Speed
4 4 3 6 7 11 14 12 10 10 11 11 5 7 5 6 6 7 6 5 4 4 5 4 6 6 6 7 7 8 9 10 11 11 11 12 11 12 13 12 12 13 14 14
4 3 1 8 11 16 16 15 18 22 25 10 3 6 6 6 6 5 5 3 3 4 4 5 6 6 8 9 9 10 10 11 12 12 12 12 13 14 13 13 12 12 13 13
5 1 5 10 16 18 7 6 13 15 13 7 5 5 6 6 5 6 4 1 3 4 5 5 6 7 8 9 9 10 11 12 12 12 13 14 14 14 15 14 14 14 13 13
2 1 5 7 1 4 12 5 12 3 4 7 5 5 5 4 6 5 3 1 4 4 5 5 5 6 8 9 10 11 12 12 13 13 15 15 15 15 15 13 14 13 14 14
4 5 7 10 5 8 9 8 11 11 7 5 7 5 2 3 4 4 3 2 2 3 4 5 6 7 8 9 9 11 12 13 14 15 15 16 16 16 15 14 14 14 14 15
4 4 7 5 3 3 4 7 6 7 9 10 8 3 3 5 5 4 4 2 3 5 4 5 7 7 8 9 10 11 13 15 15 15 15 16 16 15 13 14 16 13 15 15
8 6 8 6 7 4 5 7 4 5 7 8 6 2 6 6 4 3 3 4 4 5 5 6 6 6 9 10 11 12 14 15 15 15 15 15 15 14 15 15 14 15 15 14
5 5 13 7 5 9 4 3 7 5 5 6 8 7 6 5 4 4 4 5 6 6 7 7 6 6 9 10 12 13 14 15 15 16 13 13 16 15 15 15 14 13 14 13
13 11 2 14 0 4 5 6 5 7 5 7 8 5 5 4 4 3 4 4 4 5 7 7 6 6 10 12 12 14 14 16 16 16 15 14 15 16 13 12 11 12 11 11
3 5 5 11 3 3 3 5 6 7 8 6 8 7 5 4 3 4 4 4 4 6 7 8 8 9 9 11 13 14 15 16 15 15 17 15 11 11 12 11 11 11 11 11
4 2 4 2 3 6 9 11 12 8 6 8 9 6 5 3 2 3 3 4 4 5 7 8 8 10 10 12 13 14 15 15 14 13 14 14 13 11 11 12 14 13 12 11
9 9 5 4 11 12 13 11 11 13 7 5 6 7 5 4 1 2 4 4 5 6 6 9 10 10 12 12 12 14 15 13 13 13 12 11 12 14 19 23 27 27 26 19
5 8 8 13 11 7 13 11 9 9 9 9 5 5 4 3 1 5 4 5 5 6 7 8 9 11 12 13 14 14 15 16 13 14 12 12 12 12 15 18 24 23 23 25
14 13 9 7 6 9 13 11 13 8 7 6 6 4 4 3 3 4 4 5 6 6 7 7 9 11 12 14 14 15 15 24 12 12 11 11 11 12 11 12 14 15 21 22
7 5 9 13 13 11 12 12 11 8 6 6 5 5 4 3 3 3 4 6 7 6 6 7 9 12 13 14 15 16 14 11 12 10 11 14 11 11 11 12 12 12 13 17
9 12 14 14 13 12 11 9 9 6 5 4 5 3 3 3 2 3 4 5 5 7 8 9 11 13 14 14 15 13 11 22 18 11 11 11 11 12 11 11 12 11 11 11
15 9 12 11 12 10 7 6 7 6 5 5 4 3 3 3 4 4 5 5 4 5 5 8 11 13 12 14 15 10 10 11 21 10 11 11 11 11 12 11 11 11 11 11
5 9 8 11 12 11 9 7 7 7 4 4 4 4 4 4 2 4 5 5 4 5 6 8 11 12 13 14 13 10 9 10 11 11 11 11 12 11 11 12 12 12 10 10
7 11 11 11 9 9 8 7 6 6 5 4 4 3 2 1 2 3 5 4 5 7 8 9 18 15 13 15 18 9 9 11 11 10 11 16 13 12 12 12 12 12 9 8
12 12 13 11 9 8 8 5 6 5 3 4 4 5 4 3 3 4 4 3 3 3 8 9 12 11 11 12 19 8 10 10 11 11 10 12 12 13 12 16 15 10 9 8
10 10 10 9 8 7 6 4 5 4 2 4 4 2 1 3 3 3 3 3 6 9 7 14 9 8 5 12 11 8 9 10 10 11 11 12 13 13 12 12 11 10 8 8
5 6 7 7 6 6 4 4 4 4 4 3 3 1 1 2 3 4 1 1 5 13 6 6 7 12 11 16 7 8 9 10 9 10 11 12 12 13 12 12 11 10 8 8
6 5 6 6 6 5 3 3 3 2 2 2 2 1 1 1 1 1 3 5 5 8 5 6 12 17 17 7 7 8 9 10 10 11 11 11 11 12 12 12 10 10 8 7
3 4 4 5 5 4 4 2 2 2 2 2 3 3 2 1 2 2 4 8 11 8 6 8 10 16 15 6 7 7 8 9 9 10 11 18 11 12 12 12 11 10 9 10
4 4 4 4 4 2 3 3 3 3 2 2 2 1 2 3 3 3 2 3 9 5 3 11 13 15 6 5 6 7 7 7 9 9 10 11 11 12 12 12 11 10 9 8
4 2 3 4 2 3 3 2 2 1 2 0 1 1 2 1 1 1 2 2 3 6 3 4 4 3 4 5 5 6 6 8 9 9 11 10 11 12 12 13 12 10 9 8
1 4 2 1 2 2 3 3 3 2 2 2 2 2 1 1 2 1 1 2 2 3 3 3 3 6 4 6 6 6 5 5 11 10 9 9 10 11 12 12 12 11 9 7
Wind_Direction
257 229 225 223 199 208 208 211 204 260 228 248 228 226 204 167 151 136 129 96 46 15 350 333 318 309 303 301 306 311 312 310 309 304 300 302 302 304 302 299 295 294 295 293
285 298 298 268 242 232 227 230 246 254 267 306 107 107 136 161 152 141 125 79 11 349 330 323 313 316 317 316 319 316 308 307 308 306 308 307 308 306 304 301 298 297 295 291
257 41 310 275 248 217 183 208 220 231 243 158 171 179 165 162 144 146 138 52 350 334 323 324 320 317 318 317 312 311 309 308 309 312 310 310 308 306 305 305 303 299 295 291
237 305 235 247 184 172 199 220 209 213 171 170 153 107 100 100 142 140 116 23 350 338 326 317 306 311 318 318 312 313 311 311 314 313 311 309 307 306 306 304 300 299 297 294
199 213 306 293 193 158 172 268 200 212 152 128 113 107 135 128 98 121 117 61 342 317 299 301 311 317 319 315 311 316 313 314 314 312 309 308 306 307 304 300 299 297 292 292
148 228 241 248 189 160 126 283 178 154 155 147 142 158 210 144 121 100 83 38 359 327 307 326 326 321 314 316 318 313 315 313 309 306 307 305 303 303 300 297 296 297 295 290
216 244 277 229 159 174 109 241 119 130 140 143 170 154 133 123 98 91 74 10 1 339 330 312 311 312 317 321 312 314 311 307 307 308 307 301 301 301 299 297 296 295 291 290
177 222 264 142 73 178 183 49 121 107 123 113 119 120 114 107 95 54 23 355 351 342 333 322 313 313 320 312 312 312 311 307 308 307 307 305 302 299 298 298 293 296 296 292
189 208 151 187 6 132 133 136 144 127 129 125 122 124 124 114 71 35 6 347 339 333 321 310 308 319 314 313 315 315 311 309 309 308 309 302 303 303 298 299 296 294 292 291
130 196 197 181 105 107 100 110 120 109 122 119 121 126 114 103 48 16 356 356 341 335 319 312 322 319 307 311 315 313 311 309 312 311 310 310 299 301 298 296 291 289 291 288
250 160 97 143 169 136 102 105 106 93 107 121 120 117 120 106 52 358 350 348 341 315 314 312 314 312 315 316 313 313 311 311 312 310 306 309 305 303 301 296 294 297 298 297
230 182 152 154 148 135 132 133 128 124 109 94 111 125 123 115 50 1 7 344 323 318 323 322 318 320 320 314 315 316 312 314 312 314 316 312 313 309 305 304 307 306 302 297
176 82 74 108 111 125 130 129 122 117 122 124 111 121 117 116 19 22 5 320 310 321 321 306 317 320 316 314 319 315 309 313 314 320 319 316 316 313 316 316 312 311 310 309
101 106 81 143 149 127 119 118 114 99 104 112 122 100 98 81 34 15 349 318 330 331 306 315 325 314 313 316 318 311 313 315 319 319 316 315 313 312 307 310 315 316 319 318
57 54 112 116 113 115 116 122 120 122 123 107 97 106 89 69 39 357 332 342 333 318 320 333 323 316 321 320 317 316 319 320 324 320 319 319 314 309 309 307 305 305 312 317
93 97 115 123 127 131 131 125 123 128 127 120 115 98 83 72 48 11 351 332 338 334 333 329 324 318 319 321 318 317 323 330 333 329 321 320 318 316 315 318 316 314 313 311
114 119 128 129 140 140 133 120 125 128 120 116 116 106 88 45 42 12 336 322 309 304 313 320 320 315 323 325 321 322 328 325 333 327 325 323 317 319 322 315 318 317 315 315
88 111 125 136 138 128 120 115 116 118 120 134 130 112 78 52 360 325 314 313 331 335 331 335 319 335 331 325 323 337 328 328 328 328 325 323 329 326 321 322 322 322 322 343
87 103 104 107 114 114 114 115 115 117 121 135 118 91 80 13 306 297 307 346 8 350 331 327 333 338 325 324 350 334 330 331 331 330 331 333 332 327 328 326 327 326 341 347
84 87 93 96 95 108 115 109 119 120 133 112 93 66 42 356 324 327 338 327 272 264 301 336 337 323 323 338 350 334 334 334 333 333 334 342 332 335 327 335 335 340 348 354
91 97 102 105 104 96 104 120 126 122 107 100 93 70 328 311 327 329 1 347 335 313 5 343 326 321 332 355 348 333 335 335 337 335 338 337 332 337 333 340 341 350 355 359
100 101 106 109 113 109 99 115 113 114 105 111 111 131 9 0 4 336 252 232 300 337 12 329 313 337 360 1 334 333 334 337 339 337 342 339 339 338 341 345 351 354 357 3
121 126 128 133 139 139 119 102 95 113 145 174 173 108 47 323 307 358 332 314 325 331 11 321 331 5 8 355 336 334 334 339 340 345 343 342 340 341 345 349 353 357 358 5
109 110 106 109 115 106 126 200 185 197 206 232 229 217 184 26 336 251 287 324 327 11 5 323 353 10 15 344 338 333 335 339 338 347 344 350 342 344 348 352 354 1 2 6
111 109 116 126 134 175 153 169 182 216 205 256 288 253 210 220 183 264 306 305 344 25 349 341 1 14 2 342 336 327 333 338 345 352 348 344 344 347 346 353 355 4 360 3
141 146 161 182 187 168 176 162 171 163 143 171 320 220 274 256 258 326 325 351 344 3 334 309 315 8 1 340 340 322 331 340 347 349 351 344 344 346 345 351 354 357 359 359
107 150 108 135 214 187 182 181 152 233 194 167 202 226 233 281 274 205 17 347 327 321 314 310 331 0 10 357 329 321 325 332 354 355 344 343 344 340 344 346 353 355 0 5